{"data":{"norad_id":33749,"intl_designator":"2009-008A","name":"NSS-9","alt_names":[],"object_type":"PAYLOAD","status":"ACTIVE","operator":null,"country":"SES","launch_date":"2009-02-12","launch_site_code":"FRGUI","launch_vehicle":null,"mission":null,"orbit_class":"UNKNOWN","rcs_meters":50.1187,"size_class":null,"mass_kg":null,"dimensions":null,"purposes":["comms"],"wikipedia_slug":null,"has_3d_model":false,"image_url":null,"decayed_at":null,"tle_current":{"epoch":"2026-09-19T20:00:38.819232Z","epoch_age_seconds":71902,"freshness":"FRESH","line1":"1 33749U 09008A   26262.83378263  .00000068  00000+0  00000+0 0  9993","line2":"2 33749   1.4989  81.5392 0002159  84.3858 316.0577  1.00273474 64478","mean_motion":1.00273474,"eccentricity":0.0002159,"inclination_deg":1.4989,"raan_deg":81.5392,"arg_perigee_deg":84.3858,"mean_anomaly_deg":316.0577,"bstar":0,"rev_number":6447,"period_min":1436.0727145047,"perigee_km":35777.018216419,"apogee_km":35795.22474323,"semimajor_km":42164.258479824,"source":"CELESTRAK","updated_at":"2026-09-20T09:00:35.638343Z"}}}